User: anonymous   Login
Location: Firdgum
(53.2488°N, 5.5615°E)
Time: 13:57:58
(UTC+00:00)
Language:

Cosmos 1891 Rocket - Orbit

View from above orbital plane
View from above orbital plane
View from above satellite
View from above satellite

Ground track
Ground track

The orbit data is extracted from the following two-line orbital elements,

1 18403U 87087B   20056.18666773 -.00000061 +00000-0 -76512-4 0  9997
2 18403 082.9148 079.8538 0056578 315.2276 044.4321 13.76535126625287
Epoch (UTC): 25 February 2020 04:28:48
Eccentricity: 0.0056578
inclination: 82.9148°
perigee height: 934 km
apogee height: 1018 km
right ascension of ascending node: 79.8538°
argument of perigee: 315.2276°
revolutions per day: 13.76535126
mean anomaly at epoch: 44.4321°
orbit number at epoch: 62528

The dashed part of the orbit path shows where the satellite is in the earth's shadow,  

DLR